When you browse on this site, cookies collect data to enhance your experience and personalize the content and advertising you see.
Visit our Privacy Policy to learn more. By continuing to use the site, you agree to this use of cookies and data.
EN

Hourly Weather Dangriga

Today, 14 July, Tuesday

Time Temperature Precipitation Wind Pressure Humidity
00:00 +26°C° 0 mm 6 mps 761 mmHg 99%
01:00 +26°C° 0.2 mm 5 mps 760 mmHg 99%
02:00 +26°C° 0.2 mm 5 mps 760 mmHg 99%
03:00 +26°C° 0.2 mm 5 mps 759 mmHg 99%
04:00 +27°C° 0.2 mm 5 mps 759 mmHg 98%
05:00 +27°C° 0.2 mm 5 mps 759 mmHg 98%
06:00 +27°C° 0.2 mm 5 mps 760 mmHg 98%
07:00 +28°C° 0.5 mm 5 mps 760 mmHg 95%
08:00 +29°C° 0.5 mm 5 mps 760 mmHg 91%
09:00 +30°C° 0.5 mm 5 mps 760 mmHg 88%
10:00 +30°C° 1.1 mm 5 mps 760 mmHg 88%
11:00 +30°C° 1.1 mm 5 mps 760 mmHg 89%
12:00 +30°C° 1.1 mm 5 mps 760 mmHg 89%
13:00 +30°C° 1.6 mm 5 mps 760 mmHg 90%
14:00 +29°C° 1.6 mm 6 mps 759 mmHg 91%
15:00 +29°C° 1.6 mm 6 mps 759 mmHg 93%
16:00 +29°C° 1.1 mm 6 mps 759 mmHg 93%
17:00 +28°C° 1.1 mm 6 mps 759 mmHg 94%
18:00 +28°C° 1.1 mm 6 mps 759 mmHg 95%
19:00 +28°C° 0.2 mm 6 mps 760 mmHg 96%
20:00 +27°C° 0.2 mm 6 mps 760 mmHg 97%
21:00 +27°C° 0.2 mm 6 mps 760 mmHg 98%
22:00 +27°C° 0.9 mm 6 mps 760 mmHg 98%
23:00 +27°C° 0.9 mm 6 mps 760 mmHg 99%

Tomorrow, 15 July, Wednesday

Time Temperature Precipitation Wind Pressure Humidity
00:00 +27°C° 0.9 mm 6 mps 760 mmHg 99%
01:00 +27°C° 0.1 mm 6 mps 760 mmHg 99%
02:00 +27°C° 0.1 mm 6 mps 759 mmHg 99%
03:00 +27°C° 0.1 mm 6 mps 759 mmHg 99%
04:00 +27°C° 0.1 mm 6 mps 759 mmHg 98%
05:00 +27°C° 0.1 mm 6 mps 759 mmHg 98%
06:00 +27°C° 0.1 mm 6 mps 759 mmHg 98%
07:00 +28°C° 0.1 mm 6 mps 759 mmHg 95%
08:00 +29°C° 0.1 mm 6 mps 760 mmHg 91%
09:00 +30°C° 0.1 mm 6 mps 760 mmHg 88%
10:00 +33°C° 0 mm 6 mps 760 mmHg 77%
11:00 +34°C° 0 mm 6 mps 760 mmHg 67%
12:00 +35°C° 0 mm 7 mps 760 mmHg 57%
13:00 +35°C° 0 mm 6 mps 759 mmHg 57%
14:00 +35°C° 0 mm 6 mps 759 mmHg 58%
15:00 +35°C° 0 mm 6 mps 759 mmHg 58%
16:00 +33°C° 0.2 mm 6 mps 759 mmHg 69%
17:00 +30°C° 0.2 mm 6 mps 759 mmHg 80%
18:00 +29°C° 0.2 mm 6 mps 759 mmHg 91%
19:00 +28°C° 0.6 mm 6 mps 759 mmHg 94%
20:00 +27°C° 0.6 mm 6 mps 760 mmHg 96%
21:00 +27°C° 0.6 mm 6 mps 760 mmHg 99%
22:00 +27°C° 0.1 mm 6 mps 760 mmHg 98%
23:00 +27°C° 0.1 mm 6 mps 760 mmHg 98%

Day after tomorrow, 16 July, Thursday

Time Temperature Precipitation Wind Pressure Humidity
00:00 +27°C° 0.1 mm 5 mps 760 mmHg 98%
01:00 +27°C° 0 mm 5 mps 760 mmHg 98%
02:00 +26°C° 0 mm 5 mps 759 mmHg 98%
03:00 +26°C° 0 mm 5 mps 759 mmHg 98%
04:00 +26°C° 0.1 mm 4 mps 759 mmHg 98%
05:00 +26°C° 0.1 mm 4 mps 759 mmHg 98%
06:00 +27°C° 0.1 mm 4 mps 759 mmHg 98%
07:00 +28°C° 0.2 mm 4 mps 760 mmHg 94%
08:00 +29°C° 0.2 mm 4 mps 760 mmHg 91%
09:00 +30°C° 0.2 mm 3 mps 761 mmHg 87%
10:00 +33°C° 0.2 mm 3 mps 761 mmHg 77%
11:00 +34°C° 0.2 mm 3 mps 760 mmHg 67%
12:00 +35°C° 0.2 mm 3 mps 760 mmHg 57%
13:00 +35°C° 0.2 mm 3 mps 760 mmHg 59%
14:00 +35°C° 0.2 mm 4 mps 759 mmHg 60%
15:00 +35°C° 0.2 mm 4 mps 759 mmHg 61%
16:00 +33°C° 0.2 mm 4 mps 759 mmHg 72%
17:00 +32°C° 0.2 mm 4 mps 759 mmHg 83%
18:00 +29°C° 0.2 mm 4 mps 759 mmHg 94%
19:00 +28°C° 0.5 mm 4 mps 759 mmHg 96%
20:00 +28°C° 0.5 mm 4 mps 760 mmHg 97%
21:00 +27°C° 0.5 mm 4 mps 760 mmHg 98%
22:00 +27°C° 0.4 mm 4 mps 760 mmHg 98%
23:00 +27°C° 0.4 mm 3 mps 760 mmHg 98%

17 July, Friday

Time Temperature Precipitation Wind Pressure Humidity
00:00 +27°C° 0.4 mm 3 mps 760 mmHg 98%
01:00 +27°C° 0.7 mm 2 mps 760 mmHg 98%
02:00 +26°C° 0.7 mm 2 mps 759 mmHg 98%
03:00 +26°C° 0.7 mm 1 mps 759 mmHg 98%
04:00 +26°C° 0.5 mm 1 mps 759 mmHg 98%
05:00 +26°C° 0.5 mm 1 mps 759 mmHg 98%
06:00 +26°C° 0.5 mm 1 mps 759 mmHg 98%
07:00 +28°C° 0.3 mm 2 mps 759 mmHg 87%
08:00 +30°C° 0.3 mm 2 mps 760 mmHg 77%
09:00 +32°C° 0.3 mm 2 mps 760 mmHg 66%
10:00 +34°C° 0.1 mm 3 mps 760 mmHg 63%
11:00 +34°C° 0.1 mm 3 mps 760 mmHg 61%
12:00 +35°C° 0.1 mm 3 mps 760 mmHg 58%
13:00 +35°C° 0 mm 3 mps 759 mmHg 57%
14:00 +35°C° 0 mm 4 mps 759 mmHg 57%
15:00 +35°C° 0 mm 4 mps 758 mmHg 56%
16:00 +34°C° 0 mm 4 mps 758 mmHg 65%
17:00 +31°C° 0 mm 3 mps 758 mmHg 73%
18:00 +29°C° 0 mm 3 mps 758 mmHg 82%
19:00 +28°C° 0.2 mm 3 mps 759 mmHg 87%
20:00 +27°C° 0.2 mm 3 mps 759 mmHg 92%
21:00 +26°C° 0.2 mm 2 mps 759 mmHg 96%
22:00 +26°C° 0.1 mm 2 mps 759 mmHg 97%
23:00 +26°C° 0.1 mm 2 mps 759 mmHg 97%

18 July, Saturday

Time Temperature Precipitation Wind Pressure Humidity
00:00 +26°C° 0.1 mm 1 mps 759 mmHg 97%
01:00 +26°C° 0 mm 1 mps 759 mmHg 97%
02:00 +26°C° 0 mm 1 mps 758 mmHg 97%
03:00 +26°C° 0 mm 1 mps 758 mmHg 96%
04:00 +26°C° 0.1 mm 1 mps 758 mmHg 96%
05:00 +26°C° 0.1 mm 1 mps 758 mmHg 96%
06:00 +26°C° 0.1 mm 2 mps 758 mmHg 96%
07:00 +28°C° 0.3 mm 2 mps 759 mmHg 86%
08:00 +30°C° 0.3 mm 1 mps 759 mmHg 76%
09:00 +32°C° 0.3 mm 1 mps 760 mmHg 66%
10:00 +32°C° 0.3 mm 1 mps 759 mmHg 73%
11:00 +31°C° 0.3 mm 2 mps 759 mmHg 80%
12:00 +31°C° 0.3 mm 2 mps 759 mmHg 87%
13:00 +32°C° 0.1 mm 2 mps 759 mmHg 77%
14:00 +34°C° 0.1 mm 3 mps 758 mmHg 66%
15:00 +35°C° 0.1 mm 3 mps 758 mmHg 56%
16:00 +33°C° 0 mm 3 mps 758 mmHg 64%
17:00 +31°C° 0 mm 3 mps 758 mmHg 72%
18:00 +29°C° 0 mm 3 mps 758 mmHg 80%
19:00 +28°C° 0 mm 3 mps 758 mmHg 86%
20:00 +27°C° 0 mm 3 mps 759 mmHg 91%
21:00 +25°C° 0 mm 3 mps 759 mmHg 96%
22:00 +25°C° 0 mm 3 mps 759 mmHg 96%
23:00 +25°C° 0 mm 3 mps 759 mmHg 96%

19 July, Sunday

Time Temperature Precipitation Wind Pressure Humidity
00:00 +25°C° 0 mm 2 mps 759 mmHg 96%
01:00 +25°C° 0.2 mm 2 mps 758 mmHg 96%
02:00 +25°C° 0.2 mm 2 mps 758 mmHg 96%
03:00 +26°C° 0.2 mm 2 mps 758 mmHg 96%
04:00 +26°C° 0.8 mm 2 mps 758 mmHg 96%
05:00 +26°C° 0.8 mm 2 mps 758 mmHg 96%
06:00 +26°C° 0.8 mm 2 mps 758 mmHg 96%
07:00 +28°C° 0.1 mm 2 mps 759 mmHg 88%
08:00 +30°C° 0.1 mm 3 mps 759 mmHg 80%
09:00 +31°C° 0.1 mm 3 mps 759 mmHg 72%
10:00 +33°C° 0.1 mm 3 mps 759 mmHg 67%
11:00 +34°C° 0.1 mm 4 mps 759 mmHg 63%
12:00 +35°C° 0.1 mm 4 mps 759 mmHg 58%
13:00 +35°C° 0 mm 4 mps 758 mmHg 58%
14:00 +34°C° 0 mm 4 mps 758 mmHg 59%
15:00 +34°C° 0 mm 4 mps 757 mmHg 60%
16:00 +33°C° 0 mm 4 mps 758 mmHg 67%
17:00 +30°C° 0 mm 4 mps 758 mmHg 75%
18:00 +29°C° 0 mm 4 mps 758 mmHg 83%
19:00 +28°C° 0 mm 4 mps 758 mmHg 88%
20:00 +27°C° 0 mm 4 mps 759 mmHg 93%
21:00 +26°C° 0 mm 4 mps 759 mmHg 98%
22:00 +26°C° 0.1 mm 4 mps 759 mmHg 98%
23:00 +26°C° 0.1 mm 4 mps 759 mmHg 98%
Show more